Location: Eimen
(51.8766°N, 9.7806°E)
Time: 13:29:58
(UTC+00:00)

AQUA - Pass Details

Date: 23 May 2024
Orbit: 693 x 697 km, 98.3° (Epoch: 13 June)

Event Time Altitude Azimuth Distance (km) Brightness Sun altitude
Rises 01:56:40 0° 15° (NNE) 3,087 8.6 -9.6°
Reaches altitude 10° 01:58:56 10° 17° (NNE) 2,165 7.6 -9.4°
Maximum altitude 02:03:41 77° 105° (ESE) 719 3.9 -8.9°
Drops below altitude 10° 02:08:23 10° 191° (S) 2,147 5.8 -8.5°
Enters shadow 02:08:59 - 191° (SSW) 2,391 6.0 -8.4°
